Other Public Products
Issued by NWS Grand Forks, ND

Home | Current Version | Previous Version | Text Only | Print | Product List | Glossary Off
Versions: 1 2 3 4 5 6 7 8 9 10 11 12 13 14 15 16 17 18 19 20 21 22 23 24 25 26 27 28 29 30 31 32 33 34 35 36 37 38 39 40 41 42 43 44 45 46 47 48 49 50

000
FPUS83 KFGF 271631
OPUFGF
PRAIRIE TO PINES WEATHER ROUNDUP
NATIONAL WEATHER SERVICE EASTERN NORTH DAKOTA/GRAND FORKS ND
1100 AM CDT FRI MAY 27 2016

 **SATELLITE DATA USED TO AUGMENT SKY COVER AT AUTOMATED STATIONS**
 *****  WEATHER ACROSS EASTERN NORTH DAKOTA  *****

CITY           SKY/WX    TMP DP  RH WIND       PRES   REMARKS
GRAND FORKS    PTSUNNY   67  53  61 VRB3      29.81S
GRAND FORKS AF MOSUNNY   65  54  66 VRB3      29.82S
GRAND CITY NWS   N/A     68 N/A N/A MISG        N/A
BUXTON           N/A     68  61  78 NW5         N/A
DEVILS LAKE    MOSUNNY   63  53  70 W8        29.82S
FARGO          CLOUDY    70  57  63 NE7       29.78F
WAHPETON ARPT  CLOUDY    73  50  43 N7        29.76S
$$

 *****  WEATHER ACROSS CENTRAL AND WESTERN NORTH DAKOTA  *****

CITY           SKY/WX    TMP DP  RH WIND       PRES   REMARKS
JAMESTOWN      CLOUDY    65  54  67 E10       29.82S
BISMARCK       PTSUNNY   65  52  62 N8        29.83S
MINOT          CLOUDY    61  54  77 NW8       29.82S
MINOT AFB      PTSUNNY   59  54  82 NE8       29.81S
GARRISON         N/A     62  50  64 NW6       29.83F
WILLISTON      PTSUNNY   64  51  62 N9        29.86F
DICKINSON      MOSUNNY   62  46  55 N7        29.83F
HETTINGER      MOSUNNY   65  47  52 NW10      29.84F
$$

 *****  OTHER OBSERVATIONS NORTHEAST NORTH DAKOTA  *****

CITY           SKY/WX    TMP DP  RH WIND       PRES   REMARKS
WALHALLA       FAIR      63  63 100 NE3       29.82R
LANGDON        CLOUDY    63  55  77 N6        29.82R
CAVALIER       CLOUDY    64  57  77 S8        29.81R
GRAFTON        PTSUNNY   64  57  77 CALM      29.83S
CANDO          PTSUNNY   63  54  72 NW6       29.84S
FORT TOTTEN      N/A     65  58  78 W2        29.95S
ROLLA          CLOUDY    59  55  88 N7        29.83S
RUGBY          CLOUDY    59  54  82 N8        29.82S
 ***** THE ABOVE OBSERVATIONS ARE NON NWS ARE NOT QUALITY
        CONTROLLED AND MAY MIS-REPORT RAIN FOR SNOW...
$$

 *****  OTHER OBSERVATIONS SOUTHEAST NORTH DAKOTA *****

CITY           SKY/WX    TMP DP  RH WIND       PRES   REMARKS
COOPERSTOWN    NOT AVBL
VALLEY CITY    FAIR      63  61  94 E6        29.84S
OAKES            N/A    N/A N/A N/A MISG        N/A
GWINNER        FAIR      70  57  64 N10       29.79S
BUFFALO          N/A     65  56  73 N7          N/A
WYNDMERE         N/A     73  57  56 NE8         N/A
 ***** THE ABOVE OBSERVATIONS ARE NON NWS ARE NOT QUALITY
       CONTROLLED AND MAY MIS-REPORT RAIN FOR SNOW...
$$

  *****  WEATHER ACROSS NORTHERN MINNESOTA  *****

CITY           SKY/WX    TMP DP  RH WIND       PRES   REMARKS
FLAG ISLAND    MOSUNNY   63  57  82 S3        29.83R
WARROAD        PTSUNNY   64  57  77 E5        29.84R
ROSEAU         PTSUNNY   66  57  72 CALM      29.82S
HALLOCK        CLOUDY    64  57  77 SE6       29.81S
THF RVR FALLS  MOSUNNY   66  54  63 CALM      29.83S
HALSTAD        NOT AVBL
FOSSTON        MOSUNNY   72  70  94 E5        29.81F
BAUDETTE       CLOUDY    65  55  70 E6        29.83F
WASKISH        PTSUNNY   73  55  53 SE6       29.82S
CROOKSTON      CLOUDY    66  57  72 NW3       29.81F
$$
  *****  WEATHER ACROSS CENTRAL AND WEST MINNESOTA  *****

CITY           SKY/WX    TMP DP  RH WIND       PRES   REMARKS
BEMIDJI        CLOUDY    67  52  58 SE16      29.83S
PARK RAPIDS    CLOUDY    64  52  64 E9        29.81S
WADENA         CLOUDY    64  54  68 E9        29.79F
DETROIT LAKES  MOSUNNY   72  54  53 E7        29.80S
MOORHEAD       MOSUNNY   72  57  60 N9        29.78F
FERGUS FALLS   CLOUDY    68  54  60 SE12      29.75R
ELBOW LAKE     CLOUDY    66  54  65 N8        29.77F
MORRIS MN      LGT RAIN  66  57  72 SE12      29.76R
STAPLES        CLOUDY    64  55  72 E5        29.80S
WHEATON        PTSUNNY   72  55  56 NE8G17    29.77F
$$
  *****  WEATHER ELSEWHERE ACROSS MINNESOTA  *****

CITY           SKY/WX    TMP DP  RH WIND       PRES   REMARKS
DULUTH         LGT RAIN  62  52  69 SE7       29.89R
INTRNTL FALLS  PTSUNNY   69  55  60 NE3       29.84F
ELY            MOSUNNY   68  48  49 CALM      29.89R
CLOQUET        LGT RAIN  55  52  88 E3        29.89R
BRAINERD       LGT RAIN  63  57  81 VRB7      29.83R
HIBBING        LGT RAIN  58  55  90 E5        29.89R
ALEXANDRIA     CLOUDY    65  57  75 NE3       29.79S
SAINT CLOUD    LGT RAIN  64  60  87 SE10      29.81R
MINNEAPOLIS    LGT RAIN  64  60  87 SE12      29.83S FOG
$$

  *****  WEATHER ACROSS SOUTH DAKOTA  *****

CITY           SKY/WX    TMP DP  RH WIND       PRES   REMARKS
SIOUX FALLS    CLOUDY    66  58  75 S5        29.78F
BROOKINGS      LGT RAIN  62  58  86 S10       29.79F
WATERTOWN      LGT RAIN  61  53  75 NE13G22   29.77R
HURON          LGT RAIN  62  59  90 S12       29.77R
SISSETON         N/A     75  52  44 NE10      29.75F
ABERDEEN       PTSUNNY   68  55  63 N8        29.78S
MITCHELL       RAIN      61  60  97 S8        29.79R FOG
PIERRE         CLOUDY    63  52  67 N8        29.81R
MOBRIDGE       PTSUNNY   66  50  56 N13       29.80R
RAPID CITY     PTSUNNY   62  47  57 N12       29.85S
$$

  *****  SOME WEATHER IN NEARBY STATES *****

CITY           SKY/WX    TMP DP  RH WIND       PRES   REMARKS
GLASGOW MT     MOSUNNY   60  48  64 VRB5      29.88F
GREAT FALLS MT PTSUNNY   59  45  59 SW9       29.88S
CHEYENNE WY    CLOUDY    53  38  56 N16G23    29.92S
SCOTTSBLUFF NE CLOUDY    58  44  60 N7        29.87S
OMAHA NE       PTSUNNY   70  60  70 CALM      29.73F
DES MOINES IA  DRIZZLE   65  62  90 E5        29.74F FOG
DAVENPORT IA   CLOUDY    72  66  81 S23G31    29.81F
CHICAGO IL     PTSUNNY   74  66  76 S10       29.90R
EAU CLAIRE WI  CLOUDY    67  59  75 N5        29.80F
LA CROSSE WI   PTSUNNY   74  64  71 CALM      29.80F
$$

  *****  SOME NATIONAL WEATHER *****

CITY           SKY/WX    TMP DP  RH WIND       PRES   REMARKS
LA GUARDIA NY  MOSUNNY   84  68  58 SE10      30.06R
RALEIGH NC     MOSUNNY   82  62  50 SW8G16    30.16S
ATLANTA GA     CLOUDY    78  62  57 SE9       30.14R
NEW ORLEANS LA CLOUDY    83  70  64 SE10      29.99S
OKLAHOMA CITY  PTSUNNY   73  61  65 SW10      29.69R
ALBUQUERQUE NM MOSUNNY   61  29  29 VRB3      29.97S
SALT LAKE CITY MOSUNNY   64  40  41 VRB5      29.97F
LOS ANGELES CA CLOUDY    63  54  72 E3        29.96S
BOISE ID       SUNNY     55  36  48 NW10      30.02S
SEATTLE WA     PTSUNNY   52  44  74 SW6       30.17R
$$

*** WEATHER ACROSS MANITOBA...SASKATCHEWAN AND ONTARIO ***
                ***ONTARIO***

CITY           SKY/WX    TMP DP  RH WIND       PRES   REMARKS
GERALDTON      PTSUNNY   68  57  68 S2        29.90R
THUNDER BAY    CLOUDY    55  52  88 NE8       29.92S
SIOUX LOOKOUT  PTSUNNY   66  55  68 SW5       29.84R
TORONTO        PTSUNNY   79  68  69 S12       29.96F
BIG TROUT LK   LGT RAIN  43  39  87 N7G17     29.99R
PICKLE LAKE    PTSUNNY   63  57  82 E7        29.85R
DRYDEN         MOSUNNY   66  54  63 S9        29.85R
KENORA         PTSUNNY   64  55  72 SW3       29.83R
$$
                *** MANITOBA***

CITY           SKY/WX    TMP DP  RH WIND       PRES   REMARKS
BRANDON        LGT RAIN  59  55  88 NE15      29.85S
DAUPHIN        CLOUDY    50  48  93 N14G21    29.94R
ISLAND LAKE    CLOUDY    39  36  87 NE15      30.04S
PILOT MOUND      N/A     59  55  88 N9          N/A
THE PAS        CLOUDY    41  36  81 NE7       30.07R
THOMPSON       CLOUDY    36  30  80 NE10G18   30.17S
WINNIPEG       CLOUDY    61  59  94 N12       29.80R
LYNN LAKE      CLOUDY    37  30  75 NE13G18   30.17R
CHURCHILL      CLOUDY    30  27  86 NE13      30.33S WCI  20
GILLAM         CLOUDY    36  30  80 NE13G23   30.21R
$$
                ***SASKATCHEWAN***

CITY           SKY/WX    TMP DP  RH WIND       PRES   REMARKS
ESTEVAN        CLOUDY    61  54  77 N9        29.85F
KINDERSLEY     NOT AVBL
LLOYDMINSTER   PTSUNNY   68  45  42 SE21      29.83F
PRINCE ALBERT  PTSUNNY   57  48  72 E10G20    29.94F
REGINA         MOSUNNY   66  54  63 E5        29.88F
YORKTON        SUNNY     61  52  72 N14       29.91S
N. BATTLEFORD  PTSUNNY   66  48  52 E10       29.89F  C1F1C2F2C3F3C4F4C5F5C6F6C7F7C8F8C9F9CaFaCbFbCcFcCdFdCe!


USA.gov is the U.S. government's official web portal to all federal, state and local government web resources and services.